Zurück zum Katalog

STARLINK-37510

AktivKommunikationVLEO
NORAD 69520·PAYLOAD·🇺🇸 United States

Gestartet Jun 12, 2026 von Cape Canaveral Space Force Station

Loading…

Nächste Überflüge (nächste 24 Stunden)

TLE

AktuellSource: CelesTrak SupGP

Epoche: Sep 15, 2026, 03:52 UTC

1 69520C 26133N   26258.16159722 -.00036278  00000+0 -10721-2 0  2581
2 69520  53.1562 254.6901 0001285  87.6218 296.6389 15.34401359    10

Verfolge STARLINK-37510 in Echtzeit mit AllMySat

Download on the App Store